Weather History for KPAE - October, 2013

Change the Weather History Date:

Tuesday, October 29, 2013

  Actual Average Record
Temperature  
Mean Temperature 45 °F -  
Max Temperature 53 °F 54 °F 67 °F (1968)
Min Temperature 37 °F 39 °F 22 °F (1971)
Degree Days  
Heating Degree Days 20    
Moisture  
Dew Point 35 °F    
Average Humidity 67    
Maximum Humidity 80    
Minimum Humidity 48    
Precipitation  
Precipitation 0.00 in - - ()
Sea Level Pressure  
Sea Level Pressure 30.01 in    
Wind  
Wind Speed 3 mph (SE)    
Max Wind Speed 6 mph    
Max Gust Speed -    
Visibility 10 miles    
Events      
Averages and records for this station are not official NWS values.
T = Trace of Precipitation, MM = Missing Value Source: NWS Daily Summary

Daily Weather History Graph

Daily Weather History Graph

Search for Another Location

Airport or City:

Trip Planner

Search our weather history database for the weather conditions in past years. The results will help you decide how hot, cold, wet, or windy it might be!

Date:

Astronomy

Oct. 29, 2013 Rise Set
Actual Time 7:49 AM PDT 5:55 PM PDT
Civil Twilight 7:17 AM PDT 6:27 PM PDT
Nautical Twilight 6:41 AM PDT 7:03 PM PDT
Astronomical Twilight 6:05 AM PDT 7:39 PM PDT
Moon 2:23 AM PDT (10/29) 3:30 PM PDT (10/29)
Length of Visible Light 11h 09m
Length of Day
10h 05m
Waning Crescent, 24% of the Moon is Illuminated
Oct 29
Waning Crescent
Nov 3
New
Nov 9
First Quarter
Nov 17
Full
Nov 25
Last Quarter

Hourly Weather History & Observations

Time (PDT) Temp. Windchill Dew Point Humidity Pressure Visibility Wind Dir Wind Speed Gust Speed Precip Events Conditions
12:53 AM 43.0 °F 41.3 °F 34.0 °F 71% 29.97 in 10.0 mi SE 3.5 mph - N/A   Clear
1:53 AM 42.1 °F - 34.0 °F 73% 29.98 in 10.0 mi Calm Calm - N/A   Clear
2:53 AM 42.1 °F 40.2 °F 34.0 °F 73% 29.97 in 10.0 mi ESE 3.5 mph - N/A   Clear
3:53 AM 41.0 °F 37.1 °F 34.0 °F 76% 29.97 in 10.0 mi ESE 5.8 mph - N/A   Clear
4:53 AM 39.9 °F 36.7 °F 34.0 °F 79% 29.97 in 10.0 mi ESE 4.6 mph - N/A   Clear
5:53 AM 39.9 °F 37.8 °F 32.0 °F 73% 29.99 in 10.0 mi ESE 3.5 mph - N/A   Clear
6:53 AM 39.9 °F 37.8 °F 32.0 °F 73% 30.00 in 10.0 mi SE 3.5 mph - N/A   Clear
7:53 AM 37.0 °F 32.4 °F 30.9 °F 79% 30.01 in 10.0 mi SSE 5.8 mph - N/A   Clear
8:53 AM 39.9 °F - 34.0 °F 79% 30.02 in 10.0 mi Calm Calm - N/A   Clear
9:53 AM 43.0 °F 40.3 °F 37.0 °F 80% 30.04 in 10.0 mi South 4.6 mph - N/A   Clear
10:53 AM 46.9 °F - 39.0 °F 74% 30.04 in 10.0 mi WSW 3.5 mph - N/A   Clear
11:53 AM 50.0 °F - 37.0 °F 61% 30.04 in 10.0 mi SSE 3.5 mph - N/A   Clear
12:53 PM 52.0 °F - 34.0 °F 50% 30.02 in 10.0 mi Calm Calm - N/A   Clear
1:53 PM 51.1 °F - 36.0 °F 56% 30.01 in 10.0 mi Calm Calm - N/A   Clear
2:53 PM 52.0 °F - 37.9 °F 59% 30.01 in 10.0 mi West 4.6 mph - N/A   Clear
3:53 PM 53.1 °F - 34.0 °F 48% 30.01 in 10.0 mi Calm Calm - N/A   Clear
4:53 PM 52.0 °F - 35.1 °F 53% 30.01 in 10.0 mi Calm Calm - N/A   Clear
5:53 PM 50.0 °F - 36.0 °F 59% 30.01 in 10.0 mi Calm Calm - N/A   Clear
6:53 PM 48.0 °F - 36.0 °F 63% 30.02 in 10.0 mi Calm Calm - N/A   Clear
7:53 PM 46.9 °F - 36.0 °F 66% 30.03 in 10.0 mi Calm Calm - N/A   Clear
8:53 PM 46.0 °F - 36.0 °F 68% 30.03 in 10.0 mi Calm Calm - N/A   Clear
9:53 PM 45.0 °F 43.5 °F 35.1 °F 68% 30.04 in 10.0 mi ESE 3.5 mph - N/A   Clear
10:53 PM 46.0 °F 43.9 °F 35.1 °F 66% 30.04 in 10.0 mi ESE 4.6 mph - N/A   Clear
11:53 PM 45.0 °F 41.8 °F 35.1 °F 68% 30.04 in 10.0 mi Variable 5.8 mph - N/A   Clear